Hourly Data Report for January 26, 2022

IQALUIT CLIMATE
NUNAVUT
Current Station Operator: ECCC - MSC

63°44'50.000" N
68°32'40.000" W
33.50 m
2402592
71321
XFB

Download Data

Hourly Data (January 2022)
Hourly Data Report for January 26, 2022
TIME
LST
Temp Definition
°C
Dew Point Definition
°C
Rel Hum Definition
%
Precip. Amount Definition
mm

Wind Dir Definition
10's deg

Wind Spd Definition
km/h
Visibility Definition
km
Stn Press Definition
kPa
Hmdx Definition


Wind Chill Definition


Weather Definition


00:00 -30.3 -33.7 73 0.2 9 2   100.21   -33 LegendNANA
01:00 -29.6 -33.4 70 0.3 12 7   100.18   -37 LegendNANA
02:00 -27.5 -32.8 60 0.0 13 10   100.14   -36 LegendNANA
03:00 -28.4 -33.3 63 0.3   0   100.13     LegendNANA
04:00 -28.2 -32.3 68 0.2 13 5   100.14   -34 LegendNANA
05:00 -28.0 -31.5 72 0.1 13 8   100.12   -36 LegendNANA
06:00 -27.9 -31.4 72 0.0 19 4   100.14   -32 LegendNANA
07:00 -29.4 -32.8 72 0.2 7 1   100.14   -31 LegendNANA
08:00 -28.9 -32.1 74 0.3 18 2   100.15   -31 LegendNANA
09:00 -29.1 -32.1 75 0.1 13 5   100.19   -35 LegendNANA
10:00 -28.0 -31.1 75 0.0 11 4   100.22   -32 LegendNANA
11:00 -28.1 -31.8 70 0.3 11 6   100.22   -34 LegendNANA
12:00 -27.5 -32.0 65 0.6 11 5   100.22   -33 LegendNANA
13:00 -28.5 -33.3 63 0.2 12 6   100.20   -35 LegendNANA
14:00 -28.3 -32.8 65 0.3 10 5   100.19   -34 LegendNANA
15:00 -29.4 -33.2 70 0.6 11 8   100.25   -37 LegendNANA
16:00 -30.9 -34.5 70 0.3 13 4   100.29   -35 LegendNANA
17:00 -31.3 -34.8 71 0.0 33 1   100.30   -32 LegendNANA
18:00 -29.8 -33.3 71 0.8 11 11   100.33   -39 LegendNANA
19:00 -31.1 -34.9 70 0.4 11 5   100.34   -37 LegendNANA
20:00 -30.6 -34.2 70 0.7 15 5   100.32   -36 LegendNANA
21:00 -30.8 -34.3 72 0.2 16 6   100.25   -37 LegendNANA
22:00 -31.6 -35.0 72 0.4 15 5   100.22   -37 LegendNANA
23:00 -30.9 -34.2 73 0.1 15 7   100.18   -38 LegendNANA

Notes on Data Quality.

Legend

  • E = Estimated
  • M = Missing
  • NA = Not Available*
  • [empty] = Indicates an unobserved value
Date modified: